Location: Sternwarte auf dem Internationalen Platz Vogelsang IP
(50.5721°N, 6.4398°E)
Time: 18:48:52
(UTC+01:00)

A-11 Canister half - Pass Details

Date: 15 December 2025
Orbit: 1511 x 1688 km, 47.2° (Epoch: 19 January)

Event Time Altitude Azimuth Distance (km) Brightness Sun altitude
Rises 16:32:46 0° 246° (WSW) 4,662 13.7 -1.2°
Reaches altitude 10° 16:35:47 10° 244° (WSW) 3,694 13.0 -1.6°
Maximum altitude 16:44:59 66° 164° (SSE) 1,678 9.4 -2.8°
Drops below altitude 10° 16:54:32 10° 86° (E) 3,826 10.5 -4.0°
Enters shadow 16:57:38 - 83° (E) 4,812 11.0 -4.5°
Sets 16:57:43 0° 83° (E) 4,837 - -4.5°
